"datetime","# probes","# resolvers","can_ipv6","can_ipv6_prbs","can_tcp","can_tcp_prbs","can_tcp6","can_tcp6_prbs","does_ecs","does_ecs_prbs","does_flagday","does_flagday_prbs","does_rov4","does_rov4_prbs","does_rov6","does_rov6_prbs","does_qnamemin","doesnt_qnamemin","does_qnamemin_prbs","doesnt_qnamemin_prbs","does_nxdomain","doesnt_nxdomain","does_nxdomain_prbs","doesnt_nxdomain_prbs","has_ta_19036","hasnt_ta_19036","has_ta_19036_prbs","hasnt_ta_19036_prbs","has_ta_20326","hasnt_ta_20326","has_ta_20326_prbs","hasnt_ta_20326_prbs","can_rsamd5","cannot_rsamd5","broken_rsamd5","can_rsamd5_prbs","cannot_rsamd5_prbs","broken_rsamd5_prbs","can_dsa","cannot_dsa","broken_dsa","can_dsa_prbs","cannot_dsa_prbs","broken_dsa_prbs","can_rsasha1","cannot_rsasha1","broken_rsasha1","can_rsasha1_prbs","cannot_rsasha1_prbs","broken_rsasha1_prbs","can_dsansec3","cannot_dsansec3","broken_dsansec3","can_dsansec3_prbs","cannot_dsansec3_prbs","broken_dsansec3_prbs","can_rsansec3","cannot_rsansec3","broken_rsansec3","can_rsansec3_prbs","cannot_rsansec3_prbs","broken_rsansec3_prbs","can_rsasha256","cannot_rsasha256","broken_rsasha256","can_rsasha256_prbs","cannot_rsasha256_prbs","broken_rsasha256_prbs","can_rsasha512","cannot_rsasha512","broken_rsasha512","can_rsasha512_prbs","cannot_rsasha512_prbs","broken_rsasha512_prbs","can_eccgost","cannot_eccgost","broken_eccgost","can_eccgost_prbs","cannot_eccgost_prbs","broken_eccgost_prbs","can_ecdsa256","cannot_ecdsa256","broken_ecdsa256","can_ecdsa256_prbs","cannot_ecdsa256_prbs","broken_ecdsa256_prbs","can_ecdsa384","cannot_ecdsa384","broken_ecdsa384","can_ecdsa384_prbs","cannot_ecdsa384_prbs","broken_ecdsa384_prbs","can_ed25519","cannot_ed25519","broken_ed25519","can_ed25519_prbs","cannot_ed25519_prbs","broken_ed25519_prbs","can_ed448","cannot_ed448","broken_ed448","can_ed448_prbs","cannot_ed448_prbs","broken_ed448_prbs","can_gost","cannot_gost","broken_gost","can_gost_prbs","cannot_gost_prbs","broken_gost_prbs","can_sha384","cannot_sha384","broken_sha384","can_sha384_prbs","cannot_sha384_prbs","broken_sha384_prbs","is_internal","is_forwarding","is_external","is_internal_prbs","is_forwarding_prbs","is_external_prbs"
2017-06-20T23:59:55Z,75,124,119,71,124,75,119,71,29,16,0,0,0,0,0,0,0,124,0,75,0,124,0,75,0,0,0,0,0,0,0,0,13,70,41,11,51,24,80,29,15,55,18,10,124,0,0,75,4,0,80,29,15,55,18,10,124,0,0,75,4,0,124,0,0,75,4,0,124,0,0,75,4,0,72,36,15,49,21,10,124,0,0,75,4,0,123,0,0,74,4,0,1,107,15,1,68,10,0,106,17,0,68,11,102,7,14,65,8,9,123,0,0,74,4,0,90,10,24,57,11,12
2017-06-21T23:59:55Z,77,127,122,73,127,77,122,73,30,17,0,0,0,0,0,0,0,127,0,77,0,127,0,77,0,0,0,0,0,0,0,0,14,73,40,12,53,23,82,30,15,57,19,10,127,0,0,77,4,0,83,29,14,59,18,9,127,0,0,77,4,0,125,0,0,76,4,0,126,0,0,77,4,0,75,36,14,52,21,9,127,0,0,77,4,0,126,0,0,76,4,0,1,112,13,1,72,8,0,109,16,0,71,11,105,8,13,67,9,8,124,1,0,75,5,0,93,10,24,59,11,12
2017-06-22T23:59:56Z,79,132,127,75,132,79,127,75,29,15,0,0,0,0,0,0,3,129,2,77,0,132,0,79,0,0,0,0,0,0,0,0,12,75,45,11,54,26,85,31,16,59,19,11,132,0,0,79,4,0,87,30,14,61,18,9,132,0,0,79,4,0,132,0,0,79,4,0,132,0,0,79,4,0,76,37,18,53,21,12,132,0,0,79,4,0,131,0,0,78,4,0,0,113,18,0,72,12,0,113,18,0,72,12,105,7,19,66,8,12,129,0,0,77,4,0,97,11,24,61,12,12
2017-06-23T23:59:55Z,80,133,128,76,133,80,128,76,31,17,0,0,0,0,0,0,3,130,2,78,0,133,0,80,0,0,0,0,0,0,0,0,12,74,47,10,55,28,86,31,16,59,19,10,133,0,0,80,5,0,87,31,15,60,19,10,133,0,0,80,5,0,133,0,0,80,5,0,133,0,0,80,5,0,76,38,18,52,22,12,133,0,0,80,5,0,132,0,0,79,5,0,1,112,19,1,72,13,0,115,17,0,74,11,107,7,18,68,9,12,130,0,0,78,5,0,97,12,24,61,13,12
2017-06-24T23:59:56Z,79,130,125,75,130,79,125,75,31,17,0,0,0,0,0,0,3,127,2,77,0,130,0,79,0,0,0,0,0,0,0,0,12,75,43,11,55,25,85,31,14,59,20,9,130,0,0,79,5,0,85,30,15,58,20,10,130,0,0,79,5,0,130,0,0,79,5,0,130,0,0,79,5,0,74,36,19,50,22,13,130,0,0,79,5,0,129,0,0,78,5,0,0,109,20,0,70,13,1,111,17,1,72,11,104,7,18,67,9,12,127,0,0,77,5,0,96,10,24,61,11,12
2017-06-25T23:59:56Z,81,133,128,78,133,81,127,77,29,16,0,0,0,0,0,0,3,130,2,79,0,133,0,81,0,0,0,0,0,0,0,0,12,76,45,10,54,27,86,31,16,59,21,11,132,1,0,80,6,0,88,30,15,60,20,10,132,1,0,80,6,0,132,1,0,80,6,0,132,1,0,80,6,0,78,37,17,54,23,11,133,0,0,81,5,0,132,0,0,80,5,0,2,113,17,2,73,11,0,116,16,0,75,10,105,9,18,67,11,12,129,2,0,77,7,0,98,11,24,62,12,12
2017-06-26T23:59:56Z,80,131,126,76,131,80,124,74,30,17,0,0,0,0,0,0,3,128,2,78,0,131,0,80,0,0,0,0,0,0,0,0,12,74,45,11,54,27,86,31,14,59,21,9,130,1,0,79,6,0,86,30,15,59,20,10,130,1,0,79,6,0,130,1,0,79,6,0,130,1,0,79,6,0,74,37,19,51,23,13,131,0,0,80,5,0,130,0,0,79,5,0,0,113,17,0,73,11,0,112,18,0,73,12,105,8,17,67,10,11,128,1,0,77,6,0,96,11,24,61,12,12
2017-06-27T23:59:59Z,79,129,124,75,129,79,123,74,29,16,0,0,0,0,0,0,3,126,2,77,0,129,0,79,0,0,0,0,0,0,0,0,13,73,43,11,53,26,86,31,12,60,21,8,129,0,0,79,6,0,88,30,11,61,20,7,129,0,0,79,6,0,129,0,0,79,6,0,129,0,0,79,6,0,74,37,17,51,23,12,129,0,0,79,6,0,128,0,0,78,6,0,0,113,15,0,73,10,1,113,14,1,73,9,105,7,16,67,10,11,127,0,0,77,6,0,94,11,24,60,12,12
2017-06-28T23:59:56Z,80,131,126,76,131,80,125,75,31,18,0,0,0,0,0,0,3,128,2,78,0,131,0,80,0,0,0,0,0,0,0,0,12,77,42,10,55,25,88,31,12,61,22,8,130,1,0,79,7,0,86,33,12,59,23,8,130,1,0,79,7,0,130,1,0,79,7,0,130,1,0,79,7,0,77,37,16,53,24,11,131,0,0,80,6,0,129,1,0,78,7,0,1,113,16,1,73,11,0,115,15,0,74,10,107,8,15,68,11,10,128,1,0,77,7,0,97,10,24,62,12,12
2017-06-29T23:59:57Z,82,136,131,78,136,82,130,77,31,17,0,0,0,0,0,0,4,132,2,80,0,136,0,82,0,0,0,0,0,0,0,0,12,79,45,10,58,26,93,32,11,64,21,7,136,0,0,82,6,0,91,33,12,62,22,8,135,1,0,81,7,0,135,1,0,81,7,0,135,1,0,81,7,0,77,40,18,53,25,12,136,0,0,82,6,0,134,1,0,80,7,0,1,117,17,1,75,10,1,117,17,1,75,11,111,8,16,70,11,10,133,1,0,79,7,0,99,13,24,63,13,12
2017-06-30T23:59:59Z,82,134,129,78,134,82,126,77,31,18,0,0,0,0,0,0,3,131,2,80,0,134,0,82,0,0,0,0,0,0,0,0,12,75,47,10,54,29,89,32,13,61,21,9,132,2,0,81,7,0,89,32,13,61,21,9,134,0,0,82,6,0,134,0,0,82,6,0,134,0,0,82,6,0,78,39,16,53,24,11,134,0,0,82,6,0,133,0,0,81,6,0,0,117,16,0,76,11,0,116,17,0,75,12,108,9,16,69,11,11,130,2,0,79,7,0,96,14,24,61,14,12
2017-07-01T23:59:56Z,81,133,128,77,133,81,127,76,32,18,0,0,0,0,0,0,3,130,2,79,0,133,0,81,0,0,0,0,0,0,0,0,12,74,47,10,53,28,90,31,12,62,20,8,133,0,0,81,5,0,88,32,13,60,21,9,131,2,0,80,6,0,131,2,0,80,6,0,131,2,0,80,6,0,76,39,17,52,24,12,133,0,0,81,5,0,132,0,0,80,5,0,0,116,16,0,74,11,0,113,19,0,72,13,107,9,16,68,10,11,131,0,0,79,5,0,96,13,24,61,13,12
2017-07-02T23:59:59Z,82,134,128,78,134,82,127,77,33,19,0,0,0,0,0,0,3,131,2,80,0,133,0,82,0,0,0,0,0,0,0,0,14,78,42,12,57,26,87,35,12,59,23,9,132,2,0,81,8,0,88,33,13,60,22,10,132,2,0,81,8,0,132,2,0,81,8,0,132,2,0,81,8,0,76,39,18,52,24,12,134,0,0,82,7,0,133,0,0,81,7,0,1,117,15,1,75,10,0,118,15,0,76,11,111,9,13,71,12,9,131,0,0,80,7,0,96,13,25,62,13,13
2017-07-03T23:59:59Z,82,134,129,78,134,82,128,77,31,17,0,0,0,0,0,0,4,130,2,80,0,134,0,82,0,0,0,0,0,0,0,0,11,76,47,9,56,29,88,33,13,59,22,10,133,1,0,81,8,0,90,32,12,61,21,9,131,3,0,80,9,0,132,2,0,81,8,0,132,2,0,81,8,0,77,39,17,52,25,11,134,0,0,82,7,0,133,0,0,81,7,0,0,119,14,0,77,9,1,118,14,1,77,9,111,7,15,70,12,10,131,1,0,79,8,0,96,13,25,62,13,13
2017-07-04T23:59:56Z,82,134,129,78,134,82,127,77,32,17,0,0,0,0,0,0,3,131,2,80,0,134,0,82,0,0,0,0,0,0,0,0,12,76,46,10,57,28,89,33,12,61,21,9,134,0,0,82,7,0,88,33,13,60,21,10,133,1,0,81,8,0,133,1,0,81,8,0,133,1,0,81,8,0,80,40,13,54,25,9,134,0,0,82,7,0,133,0,0,81,7,0,0,120,13,0,78,9,1,119,13,1,77,9,114,7,12,72,12,8,131,1,0,79,8,0,96,11,27,63,12,14
2017-07-05T23:59:56Z,80,131,126,76,131,80,125,75,31,16,0,0,0,0,0,0,3,128,2,78,0,131,0,80,0,0,0,0,0,0,0,0,12,75,44,10,55,26,87,32,12,59,20,9,131,0,0,80,6,0,88,33,10,60,21,7,130,1,0,79,7,0,130,1,0,79,7,0,130,1,0,79,7,0,76,39,15,51,24,10,131,0,0,80,6,0,130,0,0,79,6,0,3,115,12,3,73,8,2,113,15,2,72,10,110,6,14,69,10,9,128,1,0,77,7,0,94,10,27,62,11,14
2017-07-06T23:59:59Z,78,129,124,74,129,78,122,73,32,17,0,0,0,0,0,0,3,126,2,76,0,129,0,78,0,0,0,0,0,0,0,0,12,74,43,10,54,25,85,34,10,58,22,7,129,0,0,78,7,0,85,34,10,57,22,7,129,0,0,78,7,0,129,0,0,78,7,0,129,0,0,78,7,0,75,40,13,50,24,9,129,0,0,78,7,0,128,0,0,77,7,0,1,116,11,1,73,7,1,114,13,1,72,9,109,7,12,68,11,8,127,0,0,76,7,0,91,11,27,59,12,14
2017-07-07T23:59:56Z,77,128,123,73,128,77,122,72,32,17,0,0,0,0,0,0,3,125,2,75,0,128,0,77,0,0,0,0,0,0,0,0,11,74,43,9,53,25,87,32,9,59,20,6,128,0,0,77,6,0,87,32,9,59,20,6,128,0,0,77,6,0,128,0,0,77,6,0,128,0,0,77,6,0,76,39,12,51,23,8,128,0,0,77,6,0,127,0,0,76,6,0,2,114,11,2,72,7,1,114,12,1,72,8,108,7,12,67,10,8,126,0,0,75,6,0,91,10,27,59,11,14
2017-07-08T23:59:59Z,79,130,125,75,130,79,124,74,34,19,0,0,0,0,0,0,1,129,1,78,0,130,0,79,0,0,0,0,0,0,0,0,11,77,42,9,58,25,82,36,12,56,24,9,129,1,0,78,9,0,87,34,9,60,23,6,129,1,0,78,9,0,129,1,0,78,9,0,129,1,0,78,9,0,77,41,11,52,26,8,130,0,0,79,8,0,128,1,0,77,9,0,3,116,10,3,75,7,1,117,11,1,75,8,111,7,11,70,13,8,128,1,0,77,9,0,91,12,27,59,13,14
2017-07-09T23:59:59Z,79,131,126,75,131,79,124,74,37,20,0,0,0,0,0,0,0,131,0,79,0,131,0,79,0,0,0,0,0,0,0,0,15,76,40,12,56,23,87,34,10,59,22,7,130,1,0,78,8,0,86,36,9,59,23,6,130,1,0,78,8,0,130,1,0,78,8,0,130,1,0,78,8,0,79,41,10,54,25,7,131,0,0,79,7,0,130,0,0,78,7,0,1,118,11,1,74,8,1,118,11,1,74,8,112,8,10,70,12,7,129,1,0,77,8,0,91,13,27,59,14,14
2017-07-10T23:59:59Z,83,138,133,79,138,83,132,78,32,16,0,0,0,0,0,0,3,135,2,81,0,138,0,83,0,0,0,0,0,0,0,0,12,81,45,10,60,25,91,37,10,62,23,7,137,1,0,82,8,0,94,35,9,64,22,6,137,1,0,82,8,0,137,1,0,82,8,0,137,1,0,82,8,0,83,42,12,56,25,8,138,0,0,83,7,0,136,1,0,81,8,0,2,124,11,2,78,7,1,123,13,1,78,8,116,8,13,73,12,8,135,1,0,80,8,0,98,13,27,63,13,14
2017-07-11T23:59:56Z,82,136,131,78,136,82,130,77,33,17,0,0,0,0,0,0,1,135,1,81,0,136,0,82,0,0,0,0,0,0,0,0,14,80,42,12,59,24,92,35,9,63,22,6,135,1,0,81,8,0,91,35,10,63,22,7,135,1,0,81,8,0,135,1,0,81,8,0,135,1,0,81,8,0,81,43,11,54,26,8,136,0,0,82,7,0,135,0,0,81,7,0,1,124,10,1,78,7,0,122,13,0,77,9,116,8,11,72,12,8,133,1,0,79,8,0,97,12,27,63,12,14
2017-07-12T23:59:56Z,80,133,128,76,133,80,127,75,31,16,0,0,0,0,0,0,1,132,1,79,0,133,0,80,0,0,0,0,0,0,0,0,13,81,39,11,57,22,88,34,11,60,21,8,133,0,0,80,5,0,91,31,11,63,19,8,132,1,0,79,6,0,132,1,0,79,6,0,132,1,0,79,6,0,79,39,14,53,23,10,133,0,0,80,5,0,132,0,0,79,5,0,2,119,11,2,75,8,1,121,10,1,76,7,115,7,10,72,9,7,130,1,0,77,6,0,97,11,25,63,10,13
2017-07-13T23:59:55Z,81,133,128,78,133,81,127,76,30,15,0,0,0,0,0,0,1,132,1,80,0,133,0,81,0,0,0,0,0,0,0,0,12,82,39,11,59,22,91,33,9,64,21,6,133,0,0,81,5,0,90,31,12,63,19,9,133,0,0,81,5,1,133,0,0,81,5,0,133,0,0,81,5,0,83,40,9,57,24,6,133,0,0,81,5,1,131,1,0,79,6,1,0,123,9,0,79,7,1,121,10,1,78,8,111,9,12,70,11,9,130,1,0,78,6,0,98,11,24,64,10,13
2017-07-14T23:59:56Z,80,133,128,77,133,80,127,75,29,14,0,0,0,0,0,0,1,132,1,79,0,133,0,80,0,0,0,0,0,0,0,0,12,79,42,10,56,24,92,33,8,64,21,5,133,0,0,80,5,0,94,31,8,65,19,5,133,0,0,80,5,0,133,0,0,80,5,0,133,0,0,80,5,0,54,67,11,37,42,8,133,0,0,80,5,0,132,0,0,79,5,0,0,120,12,0,76,9,1,121,10,1,76,7,79,39,14,49,31,10,131,0,0,78,5,0,97,11,25,63,10,13
2017-07-15T23:59:59Z,81,134,129,78,134,81,128,76,32,17,0,0,0,0,0,0,1,133,1,80,0,134,0,81,0,0,0,0,0,0,0,0,14,80,40,12,57,23,92,32,10,63,20,7,134,0,0,81,6,0,89,33,12,61,21,8,134,0,0,81,6,0,134,0,0,81,6,0,134,0,0,81,6,0,49,71,13,34,45,9,134,0,0,81,6,0,133,0,0,80,6,0,0,123,10,0,78,7,0,123,10,0,78,7,81,43,9,50,34,6,132,0,0,79,6,0,97,12,25,63,11,13
2017-07-16T23:59:57Z,82,136,131,79,136,82,130,77,31,16,0,0,0,0,0,0,1,135,1,81,0,136,0,82,0,0,0,0,0,0,0,0,12,84,40,10,59,23,91,35,10,63,21,7,134,2,0,81,6,0,91,35,10,62,22,7,133,3,0,80,7,0,133,3,0,80,7,0,133,3,0,80,7,0,48,77,10,33,49,7,136,0,0,82,5,0,133,2,0,80,6,0,1,121,13,1,77,9,0,124,11,0,78,8,76,48,11,46,37,8,131,3,0,78,7,0,100,11,25,65,10,13
2017-07-17T23:59:56Z,83,142,137,80,142,83,136,78,38,18,0,0,0,0,0,0,3,139,2,81,0,142,0,83,0,0,0,0,0,0,0,0,13,82,47,11,59,25,96,37,9,66,21,6,140,2,0,82,6,0,92,37,13,63,21,10,139,3,0,81,7,0,139,3,0,81,7,0,139,3,0,81,7,0,33,95,13,23,58,9,142,0,0,83,5,0,141,0,0,82,5,0,0,127,14,0,78,9,0,129,12,0,79,8,66,61,14,37,44,9,137,3,0,79,7,0,100,13,29,65,11,13
2017-07-18T23:59:54Z,80,135,130,77,134,80,128,75,35,19,0,0,0,0,0,0,3,132,2,78,0,134,0,80,0,0,0,0,0,0,0,0,12,75,48,11,53,26,90,35,10,61,21,7,134,1,0,79,6,0,86,35,14,58,21,10,134,1,0,79,6,0,134,1,0,79,6,0,134,1,0,79,6,0,38,81,15,27,49,10,135,0,0,80,6,0,133,0,1,78,6,1,3,118,13,2,74,9,0,120,14,0,75,10,66,55,13,37,41,9,132,1,0,77,6,0,97,11,27,62,10,13
2017-07-19T23:59:55Z,79,134,129,76,134,79,128,74,33,16,0,0,0,0,0,0,3,131,2,77,0,134,0,79,0,0,0,0,0,0,0,0,11,79,44,10,55,24,90,34,10,61,20,7,134,0,0,79,5,0,89,34,11,60,20,8,134,0,0,79,5,0,134,0,0,79,5,0,134,0,0,79,5,0,30,89,14,21,54,10,134,0,0,79,5,0,133,0,0,78,5,0,0,118,15,0,73,11,1,119,13,1,74,9,61,61,11,36,44,7,132,0,0,77,5,0,97,10,27,62,9,13
2017-07-20T23:59:55Z,80,135,130,77,135,80,129,75,40,21,0,0,0,0,0,0,3,132,2,78,0,135,0,80,0,0,0,0,0,0,0,0,10,81,44,10,57,24,88,37,10,61,22,6,133,2,0,79,7,0,87,37,11,60,22,7,133,2,0,79,7,0,133,2,0,79,7,0,133,2,0,79,7,0,32,89,13,22,54,9,135,0,0,80,6,0,134,0,0,79,6,0,0,122,12,0,76,8,1,121,12,1,75,8,63,57,14,38,41,9,131,2,0,77,7,0,97,11,27,62,10,13
2017-07-21T23:59:55Z,78,132,127,75,132,78,126,73,35,17,0,0,0,0,0,0,3,129,2,76,0,132,0,78,0,0,0,0,0,0,0,0,9,79,44,9,55,24,85,37,10,58,22,7,132,0,0,78,5,0,88,33,11,61,19,7,132,0,0,78,5,0,132,0,0,78,5,0,132,0,0,78,5,0,31,88,12,22,53,8,132,0,0,78,5,0,131,0,0,77,5,0,1,117,13,1,73,8,0,118,13,0,74,9,61,58,12,36,41,8,130,0,0,76,5,0,97,8,27,62,8,13
2017-07-22T23:59:58Z,81,134,129,78,134,81,128,76,33,16,0,0,0,0,0,0,3,131,2,79,0,134,0,81,0,0,0,0,0,0,0,0,8,78,48,8,57,28,88,36,10,62,21,8,134,0,0,81,6,1,88,34,12,61,20,10,133,1,0,80,7,1,133,1,0,80,7,1,133,1,0,80,7,1,27,90,16,19,57,13,134,0,0,81,6,1,133,0,0,80,6,1,2,116,15,2,74,11,1,120,12,1,76,9,60,58,15,35,44,11,131,1,0,78,7,1,98,9,27,64,9,13
2017-07-23T23:59:57Z,82,138,133,79,138,82,132,77,37,18,0,0,0,0,0,0,4,134,2,80,0,138,0,82,0,0,0,0,0,0,0,0,8,83,47,8,59,26,88,37,13,60,22,9,136,2,0,81,7,0,89,37,12,61,22,9,135,3,0,80,8,0,135,3,0,80,8,0,135,3,0,80,8,0,27,98,12,19,61,7,138,0,0,82,6,0,137,0,0,81,6,0,1,123,13,1,78,8,0,123,14,0,77,9,61,64,12,36,47,7,133,3,0,78,8,0,100,11,27,64,10,13
2017-07-24T23:59:56Z,73,124,119,70,124,73,118,68,34,17,0,0,0,0,0,0,3,121,2,71,0,124,0,73,0,0,0,0,0,0,0,0,10,74,40,9,51,23,84,34,6,56,21,5,119,5,0,71,8,0,84,34,6,56,21,5,120,4,0,71,8,0,118,6,0,70,9,0,119,5,0,71,9,0,32,84,8,22,50,6,124,0,0,73,7,0,123,1,0,72,6,0,2,111,11,2,69,9,1,112,11,1,69,8,58,51,15,34,36,11,118,5,0,69,10,0,87,11,26,56,9,13
2017-07-25T23:59:56Z,75,126,121,72,126,75,120,70,34,17,0,0,0,0,0,0,3,123,2,73,0,126,0,75,0,0,0,0,0,0,0,0,11,70,45,10,50,26,84,36,6,56,22,6,124,2,0,74,8,0,80,38,8,54,24,7,122,4,0,73,10,0,123,3,0,73,9,0,120,6,0,73,11,0,34,82,10,22,50,9,126,0,0,75,7,0,123,3,0,74,9,0,1,112,13,1,70,9,4,114,8,4,71,8,65,53,8,38,40,7,120,5,0,72,10,0,88,11,27,57,10,13
2017-07-26T23:59:57Z,73,123,118,70,123,73,116,67,33,16,0,0,0,0,0,0,3,120,2,71,0,123,0,73,0,0,0,0,0,0,0,0,12,69,42,12,49,23,78,38,7,52,24,6,116,7,0,68,12,0,80,38,5,54,24,4,120,3,0,71,8,0,119,4,0,70,9,0,120,3,0,70,9,0,34,79,10,23,49,8,123,0,0,73,7,0,118,5,0,70,9,0,2,111,10,2,70,7,1,113,9,2,71,7,64,47,12,38,35,9,118,4,0,69,10,0,86,10,27,56,9,13
2017-07-27T23:59:57Z,81,136,131,78,136,81,130,76,35,18,0,0,0,0,0,0,3,133,2,79,0,136,0,81,0,0,0,0,0,0,0,0,10,81,45,9,58,24,90,36,10,62,21,7,136,0,0,81,5,0,90,37,9,62,22,6,136,0,0,81,5,0,136,0,0,81,5,0,136,0,0,81,5,0,30,89,16,21,57,11,136,0,0,81,5,0,135,0,0,80,5,0,2,117,16,1,73,11,1,119,15,1,74,10,67,56,12,40,41,8,134,0,0,79,5,0,99,10,27,64,9,13
2017-07-28T23:59:56Z,85,140,135,82,140,85,134,80,36,18,0,0,0,0,0,0,3,137,2,83,0,140,0,85,0,0,0,0,0,0,0,0,14,82,44,12,60,24,93,38,9,66,23,6,138,2,0,84,7,0,92,39,9,64,24,6,137,3,0,83,8,0,137,3,0,83,8,0,137,3,0,83,8,0,36,90,13,25,58,9,140,0,0,85,6,0,139,0,0,84,6,0,0,126,13,0,80,9,0,127,12,0,81,8,72,56,11,43,43,7,137,1,0,82,7,0,100,13,27,66,11,13
2017-07-29T23:59:59Z,81,133,128,78,133,81,127,76,33,17,0,0,0,0,0,0,3,130,2,79,0,133,0,81,0,0,0,0,0,0,0,0,13,78,42,11,57,24,89,34,10,62,21,7,133,0,0,81,6,0,90,31,12,63,19,8,133,0,0,81,6,0,133,0,0,81,6,0,133,0,0,81,6,0,33,87,12,22,58,8,133,0,0,81,6,0,132,0,0,80,6,0,0,119,13,0,77,9,2,117,13,2,76,9,64,53,15,38,41,10,131,0,0,79,6,0,99,10,24,65,9,12
2017-07-30T23:59:56Z,82,136,131,79,136,82,130,77,38,19,0,0,0,0,0,0,3,133,2,80,0,136,0,82,0,0,0,0,0,0,0,0,10,81,44,10,60,24,89,37,10,63,21,7,136,0,0,82,6,0,91,35,10,64,20,7,134,1,0,81,7,0,134,1,0,81,7,0,135,1,0,81,7,0,36,85,14,25,53,10,136,0,0,82,6,0,135,0,0,81,6,0,1,118,16,1,76,10,1,121,13,1,77,9,63,58,13,37,44,9,133,0,0,80,6,0,100,12,24,66,9,12
2017-07-31T23:59:58Z,80,132,127,77,132,80,125,74,36,19,0,0,0,0,0,0,3,129,2,78,0,131,0,79,0,0,0,0,0,0,0,0,8,75,48,8,55,28,88,35,9,62,21,6,132,0,0,80,5,0,86,36,10,60,22,7,131,0,0,80,5,0,132,0,0,80,5,0,132,0,0,80,5,0,32,87,12,23,55,8,132,0,0,80,5,0,131,0,0,79,5,0,0,120,11,0,77,7,2,118,11,2,76,7,62,56,13,37,42,8,130,0,0,78,5,0,98,10,24,64,9,12
2017-08-01T23:59:59Z,82,133,128,79,133,82,126,76,31,16,0,0,0,0,0,0,3,130,2,80,0,133,0,82,0,0,0,0,0,0,0,0,10,81,42,10,59,24,89,36,8,63,23,5,132,1,0,81,6,0,91,33,9,64,21,6,132,1,0,81,6,0,132,1,0,81,6,0,132,1,0,81,6,0,36,83,13,25,54,9,133,0,0,82,5,0,132,0,0,81,5,0,2,117,13,1,76,9,0,121,11,0,79,7,65,55,12,40,41,8,131,0,0,80,5,0,99,10,24,65,10,12
2017-08-02T23:59:59Z,83,138,133,80,138,83,132,78,37,18,0,0,0,0,0,0,3,135,2,81,0,138,0,83,0,0,0,0,0,0,0,0,11,80,47,10,57,26,88,38,12,62,22,8,136,2,0,82,6,0,90,38,10,64,22,7,136,2,0,82,6,0,136,2,0,82,6,0,136,2,0,82,6,0,36,88,13,26,55,9,138,0,0,83,5,0,137,0,0,82,5,0,3,119,15,2,75,11,0,123,14,0,77,10,68,57,12,40,42,8,134,2,0,80,6,0,99,12,27,65,10,13
2017-08-03T23:59:58Z,83,137,132,80,137,83,131,78,34,16,0,0,0,0,0,0,3,134,2,81,0,137,0,83,0,0,0,0,0,0,0,0,9,80,48,9,58,27,90,37,10,63,22,7,137,0,0,83,5,0,91,36,10,64,21,7,137,0,0,83,5,0,137,0,0,83,5,0,137,0,0,83,5,0,35,86,15,25,54,11,137,0,0,83,5,0,136,0,0,82,5,0,0,122,14,0,78,10,2,121,13,1,79,9,68,55,13,40,41,9,134,1,0,80,6,0,100,10,27,66,9,13
2017-08-04T23:59:57Z,83,138,133,80,138,83,133,79,37,19,0,0,0,0,0,0,3,135,2,81,0,138,0,83,0,0,0,0,0,0,0,0,9,82,47,8,59,26,88,39,11,61,23,8,137,1,0,82,6,0,90,36,12,62,21,9,137,1,0,82,6,0,137,1,0,82,6,0,137,1,0,82,6,0,34,83,20,25,51,14,138,0,0,83,5,0,136,1,0,81,6,0,1,120,16,1,75,12,1,120,16,1,75,11,67,56,14,40,41,9,136,0,0,81,5,0,101,10,27,66,9,13
2017-08-05T23:59:58Z,84,140,135,81,140,84,134,80,36,18,0,0,0,0,0,0,3,137,2,82,0,140,0,84,0,0,0,0,0,0,0,0,13,83,44,11,59,24,91,39,10,63,23,7,138,2,0,83,6,0,94,38,8,65,23,5,138,2,0,83,6,0,138,2,0,83,6,0,138,2,0,83,6,0,39,87,13,27,54,9,140,0,0,84,5,0,139,0,0,83,5,0,0,125,14,0,79,9,2,124,13,2,78,8,70,57,12,42,41,8,136,2,0,81,6,0,100,13,27,65,11,13
2017-08-06T23:59:59Z,85,141,136,82,141,85,136,81,36,18,0,0,0,0,0,0,3,138,2,83,0,141,0,85,0,0,0,0,0,0,0,0,10,81,50,9,58,29,94,36,11,65,21,8,141,0,0,85,5,0,91,38,12,63,23,9,141,0,0,85,5,0,141,0,0,85,5,0,141,0,0,85,5,0,38,90,12,27,56,8,141,0,0,85,5,0,140,0,0,84,5,0,0,127,13,0,81,9,5,123,12,3,78,8,70,58,12,41,43,8,138,1,0,82,6,0,102,12,27,67,10,13
2017-08-07T23:59:59Z,83,139,134,80,139,83,134,79,36,18,0,0,0,0,0,0,3,136,2,81,0,139,0,83,0,0,0,0,0,0,0,0,10,82,47,9,59,26,92,36,11,63,21,8,139,0,0,83,5,0,94,35,10,65,21,7,139,0,0,83,5,0,139,0,0,83,5,0,139,0,0,83,5,0,35,88,15,24,55,11,139,0,0,83,5,0,138,0,0,82,5,0,0,120,18,0,76,12,1,124,13,1,78,9,68,56,14,41,40,9,137,0,0,81,5,0,101,11,27,65,10,13
2017-08-08T23:59:58Z,85,142,137,82,142,85,137,81,37,19,0,0,0,0,0,0,3,139,2,83,0,142,0,85,0,0,0,0,0,0,0,0,10,82,50,9,60,27,94,39,9,65,23,6,141,1,0,84,6,0,93,39,10,64,23,7,141,1,0,84,6,0,141,1,0,84,6,0,141,1,0,84,6,0,41,85,15,30,52,10,142,0,0,85,5,0,141,0,0,84,5,0,1,127,13,1,80,9,0,130,11,0,82,7,72,57,12,44,41,8,139,1,0,82,6,0,103,12,27,67,10,13
2017-08-09T23:59:59Z,85,143,138,82,143,85,137,80,39,20,0,0,0,0,0,0,3,140,2,83,0,143,0,85,0,0,0,0,0,0,0,0,13,83,47,11,60,26,93,41,9,64,24,6,141,2,0,84,6,0,92,39,12,63,23,8,140,3,0,83,7,0,140,3,0,83,7,0,140,3,0,83,7,0,34,95,13,24,59,9,143,0,0,85,5,0,142,0,0,84,5,0,0,123,19,0,77,13,2,126,14,2,78,10,71,59,12,43,41,8,138,3,0,81,7,0,102,14,27,66,11,13
2017-08-10T23:59:59Z,84,139,134,81,139,84,133,79,37,19,0,0,0,0,0,0,3,136,2,82,0,139,0,84,0,0,0,0,0,0,0,0,11,84,44,9,61,25,92,38,9,63,24,6,138,1,0,83,7,0,93,36,10,63,23,7,138,1,0,83,7,0,138,1,0,83,7,0,138,1,0,83,7,0,35,91,12,25,57,8,139,0,0,84,6,0,138,0,0,83,6,0,0,121,17,0,78,11,0,126,12,0,81,8,67,60,11,41,44,7,136,1,0,81,7,0,101,11,27,65,11,13
2017-08-11T23:59:58Z,81,137,132,78,137,81,132,77,32,15,0,0,0,0,0,0,3,134,2,79,0,137,0,81,0,0,0,0,0,0,0,0,11,80,46,9,57,26,91,37,9,62,22,6,137,0,0,81,5,0,92,36,9,63,21,6,137,0,0,81,5,0,137,0,0,81,5,0,137,0,0,81,5,0,36,89,11,25,54,7,137,0,0,81,5,0,136,0,0,80,5,0,1,124,11,1,78,7,1,124,11,1,77,7,68,57,11,41,41,7,135,0,0,79,5,0,100,10,27,64,9,13
2017-08-12T23:59:59Z,82,139,134,79,139,82,134,78,36,18,0,0,0,0,0,0,3,136,2,80,0,139,0,82,0,0,0,0,0,0,0,0,15,78,46,12,57,25,92,38,9,63,23,6,137,2,0,81,6,0,92,36,11,63,21,7,137,2,0,81,6,0,137,2,0,81,6,0,137,2,0,81,6,0,38,87,13,27,53,9,139,0,0,82,5,0,138,0,0,81,5,0,0,123,15,0,76,11,0,125,13,0,77,9,71,55,12,43,39,8,135,2,0,79,6,0,100,12,27,64,10,13
2017-08-13T23:59:59Z,83,138,133,80,138,83,133,79,34,18,0,0,0,0,0,0,3,135,2,81,0,138,0,83,0,0,0,0,0,0,0,0,14,82,42,11,59,23,93,36,9,64,22,6,137,1,0,82,6,0,95,34,9,65,21,6,137,1,0,82,6,0,137,1,0,82,6,0,137,1,0,82,6,0,40,83,14,29,51,10,138,0,0,83,5,0,137,0,0,82,5,0,0,122,15,0,77,10,0,125,12,0,79,8,71,55,11,43,40,7,136,0,0,81,5,0,102,9,27,66,9,13
2017-08-14T23:59:59Z,84,139,134,81,139,84,133,79,33,17,0,0,0,0,0,0,3,136,2,82,0,139,0,84,0,0,0,0,0,0,0,0,11,85,43,9,61,24,94,33,12,65,20,8,138,1,0,83,6,0,93,34,12,63,21,9,138,1,0,83,6,0,138,1,0,83,6,0,138,1,0,83,6,0,45,77,16,32,48,11,139,0,0,84,5,0,138,0,0,83,5,0,1,122,15,1,77,10,1,125,12,1,80,8,69,54,15,42,39,10,136,1,0,81,6,0,102,10,27,66,10,13
2017-08-15T23:59:58Z,83,140,135,80,140,83,134,79,34,16,0,0,0,0,0,0,3,137,2,81,0,140,0,83,0,0,0,0,0,0,0,0,12,83,44,10,60,24,95,36,9,66,21,6,140,0,0,83,5,0,94,36,10,65,21,7,140,0,0,83,5,0,140,0,0,83,5,0,140,0,0,83,5,0,39,85,15,27,52,11,140,0,0,83,5,0,139,0,0,82,5,0,1,125,13,1,78,9,1,126,12,1,78,8,73,54,12,43,40,8,137,1,0,80,6,0,102,11,27,66,9,13
2017-08-16T23:59:58Z,82,137,132,79,137,82,131,77,36,18,0,0,0,0,0,0,3,134,2,80,0,137,0,82,0,0,0,0,0,0,0,0,14,80,43,12,58,23,92,35,10,64,20,7,137,0,0,82,5,0,94,34,9,65,20,6,137,0,0,82,5,0,137,0,0,82,5,0,137,0,0,82,5,0,40,81,15,27,51,10,137,0,0,82,5,0,136,0,0,81,5,0,1,121,14,1,75,10,0,124,12,0,78,8,71,53,12,42,40,8,135,0,0,80,5,0,100,10,27,65,9,13
2017-08-17T23:59:58Z,81,136,131,78,136,81,130,76,36,18,0,0,0,0,0,0,3,133,2,79,0,136,0,81,0,0,0,0,0,0,0,0,12,80,44,10,58,24,90,36,10,62,21,7,136,0,0,81,5,0,89,34,13,62,20,10,136,0,0,81,5,0,136,0,0,81,5,0,136,0,0,81,5,0,43,76,16,28,48,12,136,0,0,81,5,0,135,0,0,80,5,0,0,121,14,0,76,10,2,119,14,2,75,10,71,50,14,40,38,10,134,0,0,79,5,0,99,10,27,64,9,13
2017-08-18T23:59:59Z,80,134,129,77,134,80,128,75,35,17,0,0,0,0,0,0,0,134,0,80,0,134,0,80,0,0,0,0,0,0,0,0,10,81,43,9,59,24,88,35,11,61,21,8,134,0,0,80,5,0,87,34,13,61,20,9,134,0,0,80,5,0,134,0,0,80,5,0,134,0,0,80,5,0,39,82,12,26,52,9,134,0,0,80,5,0,133,0,0,79,5,0,0,121,12,0,76,9,2,120,11,1,76,8,74,49,10,43,38,7,133,0,0,79,5,0,97,10,27,63,9,13
2017-08-19T23:59:59Z,82,138,133,79,138,82,132,77,36,18,0,0,0,0,0,0,3,135,2,80,0,138,0,82,0,0,0,0,0,0,0,0,14,79,45,11,56,25,91,38,9,63,22,6,138,0,0,82,5,0,89,36,13,61,21,10,135,3,0,80,7,0,135,3,0,80,7,0,135,3,0,80,7,0,43,80,14,28,51,9,138,0,0,82,5,0,137,0,0,81,5,0,0,123,14,0,76,10,1,123,13,1,77,9,75,51,11,43,39,7,133,3,0,78,7,0,100,11,27,65,9,13
2017-08-20T23:59:58Z,83,140,135,80,140,83,134,78,35,17,0,0,0,0,0,0,3,137,2,81,0,140,0,83,0,0,0,0,0,0,0,0,13,82,45,10,58,25,92,37,11,62,22,8,137,3,0,81,7,0,89,37,14,60,22,10,137,3,0,81,7,0,137,3,0,81,7,0,137,3,0,81,7,0,40,86,13,27,54,9,140,0,0,83,5,0,138,1,0,81,6,0,2,120,17,2,75,11,2,123,14,1,76,10,69,56,14,39,42,9,136,2,0,80,6,0,101,12,27,65,10,13